"Pseudo-MPEC" for P22bZYt

Created 2025 Oct 18 1:35:16 UT using Find_Orb

Click here for an explanation of pseudo-MPECs

 
 Astrometry: 
     P22bZYt  C2025 07 17.32037016 47 41.201-07 36 36.97   ~82I5 22.28GVNEOCPF52
     P22bZYt  C2025 07 17.34712116 47 37.443-07 36 56.02   ~82I5 22.12GVNEOCPF52
     P22bZYt  C2025 07 17.36049116 47 35.624-07 37 05.29   ~82I5 22.06GVNEOCPF52
     P22bZYt* C2025 07 26.29268516 28 49.001-09 18 46.68   ~7QAo 21.65wXNEOCPF52
     P22bZYt  C2025 07 26.31447916 28 46.458-09 19 01.00   ~7QAo 21.81wXNEOCPF52
     P22bZYt  C2025 07 26.32530816 28 45.168-09 19 08.25   ~7QAo 22.42wXNEOCPF52
     P22bZYt KC2025 07 27.16415616 27 10.419-09 28 19.09   ~7R4o 22.1 GWNEOCPH01
     P22bZYt KC2025 07 27.16920216 27 09.858-09 28 22.48   ~7R4o 22.3 GWNEOCPH01
     P22bZYt KC2025 07 27.18273216 27 08.327-09 28 31.27   ~7R4o 22.3 GWNEOCPH01
     P22bZYt KC2025 07 27.18693516 27 07.847-09 28 34.10   ~7R4o 21.9 GWNEOCPH01
     P22bZYt 1C2025 08 01.26903616 18 14.017-10 22 38.96   ~81MZ 22.57GVNEOCPT12
     P22bZYt 1C2025 08 01.27290616 18 13.622-10 22 41.39   ~81MZ 22.66GVNEOCPT12
     P22bZYt 1C2025 08 15.37906 15 59 12.33 -12 40 02.9    ~8OEZ       VNEOCPQ62
     P22bZYt 1C2025 08 15.39272 15 59 11.44 -12 40 10.0    ~8OEZ 22.4 GVNEOCPQ62
     P22bZYt 3C2025 08 16.25235215 58 16.776-12 48 02.06   ~8GBK 22.87GVNEOCPT14
     P22bZYt 3C2025 08 16.25390015 58 16.680-12 48 02.89   ~8GBK 22.96GVNEOCPT14
     P22bZYt 3C2025 08 16.25545015 58 16.582-12 48 03.76   ~8GBK 23.07GVNEOCPT14
     P22bZYt 3C2025 08 22.28984815 52 36.001-13 41 23.20   ~8MCK 22.66GVNEOCPT14
     P22bZYt 3C2025 08 25.30307015 50 12.604-14 07 04.13   ~8PCZ 23.11GVNEOCPT14
     P22bZYt 3C2025 08 25.30467915 50 12.517-14 07 04.70   ~8PCZ 23.67GVNEOCPT14
     P22bZYt 3C2025 08 25.30623115 50 12.465-14 07 05.58   ~8PCZ 23.14GVNEOCPT14

Station data:
(F52) Pan-STARRS 2, Haleakala  (N20.707382 W156.255910)  US/Hawaii.
   Observers J. Herman, T. Lowe, P. Minguez, A. Schultz, I. Smith. Measurers
   K. Chambers, T. de Boer, J. Fairlamb, H. Gao, M. Huber, C.-C. Lin, E.
   Magnier, Y. Ramanjooloo, R. Wainscoat, R. Weryk. 1.8-m Ritchey-Chrétien +
   CCD.
(H01) Magdalena Ridge Observatory, Socorro  (N33.984833 W107.189333)  US/New
   Mexico.  Observers W. H. Ryan, E. V. Ryan. Measurer W. H. Ryan. 2.4-m
   f/8.9 reflector + CCD.
(Q62) iTelescope Observatory, Siding Spring  (S31.273286 E149.064420)
   Australia/NSW.  Observer H. Sato. 0.30-m f/9 reflector + CCD.
(T12) Mauna Kea-UH/Tholen NEO Follow-Up (2.24-m)  (N19.822991 W155.469434)
   US/Hawaii.  Observer R. Weryk. 2.24-m f/10.1 University of Hawaii
   reflector.
(T14) Mauna Kea-UH/Tholen NEO Follow-Up (CFHT)  (N19.825252 W155.468876)
   US/Hawaii.  Observer R. Weryk. 3.6-m Canada-France-Hawaii Telescope.

Orbital elements:  P22bZYt
   Perihelion 2025 Jun 10.170102 +/- 0.0317 TT =  4:04:56.8 (JD 2460836.670102)
Epoch 2025 Aug 25.0 TT = JDT 2460912.5                           AutoNEOCP
M   0.028025797 +/- 0.0012          (J2000 ecliptic)
n   0.000369587 +/- 1.62e-5         Peri.  151.965389 +/- 0.009
a 192.3052077 +/- 5.63              Node    68.646746 +/- 0.0012
e   0.98345836 +/- 0.000484         Incl.  144.246904 +/- 0.0011
P2666.77619                H 17.12  G  0.15   U  5.3
q 3.181042428 +/- 6.93e-5    Q 381.4293731 +/- 11.3
From 21 observations 2025 July 17-Aug. 25; mean residual 0".18
Residuals in arcseconds: 
250717 F52  .03+  .07+    250727 H01  .03-  .01-    250816 T14  .03-  .01+    
250717 F52  .42-  .11-    250727 H01  .05-  .03+    250816 T14  .01+  .02+    
250717 F52  .21+  .05+    250727 H01  .13-  .05-    250816 T14  .03+  .01-    
250726 F52  .60+  .10+    250801 T12  .05+  .02-    250822 T14  .11-  .09-    
250726 F52  .24+  .12+    250801 T12  .09-  .04-    250825 T14  .09+  .09-    
250726 F52  .35-  .01-    250815 Q62  .32-  .11+    250825 T14  .11-  .15+    
250727 H01  .17-  .09+    250815 Q62  .24-  .48+    250825 T14  .16+  .05+    

Ephemerides (geocentric):
Date (UTC) HH   RA             Dec           delta  r     elong  mag " sig PA
---- --------  ------------   ------------  ------ ------ -----  --- --------
2025 10 18 02  15 40 25.977   -20 40 54.99  4.2038 3.4123  33.1 23.5 1.30 121
2025 10 18 03  15 40 26.447   -20 41 11.66  4.2044 3.4124  33.0 23.5 1.30 121
2025 10 18 04  15 40 26.917   -20 41 28.33  4.2050 3.4125  33.0 23.5 1.30 121
2025 10 18 05  15 40 27.389   -20 41 45.00  4.2056 3.4127  32.9 23.5 1.30 121
2025 10 18 06  15 40 27.861   -20 42 01.66  4.2062 3.4128  32.9 23.5 1.30 121
2025 10 18 07  15 40 28.334   -20 42 18.32  4.2067 3.4130  32.9 23.5 1.30 121
2025 10 18 08  15 40 28.808   -20 42 34.99  4.2073 3.4131  32.8 23.5 1.31 121
2025 10 18 09  15 40 29.282   -20 42 51.65  4.2079 3.4132  32.8 23.5 1.31 121
2025 10 18 10  15 40 29.758   -20 43 08.31  4.2085 3.4134  32.8 23.5 1.31 121
2025 10 18 11  15 40 30.234   -20 43 24.96  4.2091 3.4135  32.7 23.5 1.31 121
2025 10 18 12  15 40 30.711   -20 43 41.62  4.2097 3.4137  32.7 23.5 1.31 121
2025 10 18 13  15 40 31.189   -20 43 58.28  4.2103 3.4138  32.6 23.5 1.31 121
2025 10 18 14  15 40 31.668   -20 44 14.93  4.2108 3.4140  32.6 23.5 1.31 121
2025 10 18 15  15 40 32.147   -20 44 31.58  4.2114 3.4141  32.6 23.5 1.32 121
2025 10 18 16  15 40 32.628   -20 44 48.24  4.2120 3.4142  32.5 23.5 1.32 121
2025 10 18 17  15 40 33.109   -20 45 04.89  4.2126 3.4144  32.5 23.5 1.32 121
2025 10 18 18  15 40 33.591   -20 45 21.54  4.2132 3.4145  32.4 23.5 1.32 121
2025 10 18 19  15 40 34.074   -20 45 38.18  4.2138 3.4147  32.4 23.5 1.32 121
2025 10 18 20  15 40 34.558   -20 45 54.83  4.2143 3.4148  32.4 23.5 1.32 121
2025 10 18 21  15 40 35.042   -20 46 11.48  4.2149 3.4150  32.3 23.5 1.32 121
2025 10 18 22  15 40 35.527   -20 46 28.12  4.2155 3.4151  32.3 23.5 1.33 121
2025 10 18 23  15 40 36.013   -20 46 44.77  4.2161 3.4152  32.3 23.5 1.33 121
2025 10 19 00  15 40 36.500   -20 47 01.41  4.2167 3.4154  32.2 23.5 1.33 121
2025 10 19 01  15 40 36.988   -20 47 18.05  4.2172 3.4155  32.2 23.5 1.33 121
2025 10 19 02  15 40 37.477   -20 47 34.69  4.2178 3.4157  32.1 23.5 1.33 121
2025 10 19 03  15 40 37.966   -20 47 51.33  4.2184 3.4158  32.1 23.5 1.33 121
2025 10 19 04  15 40 38.456   -20 48 07.96  4.2190 3.4160  32.1 23.5 1.34 121
2025 10 19 05  15 40 38.947   -20 48 24.60  4.2196 3.4161  32.0 23.5 1.34 121
2025 10 19 06  15 40 39.439   -20 48 41.23  4.2201 3.4162  32.0 23.5 1.34 121
2025 10 19 07  15 40 39.932   -20 48 57.87  4.2207 3.4164  31.9 23.5 1.34 121
2025 10 19 08  15 40 40.425   -20 49 14.50  4.2213 3.4165  31.9 23.5 1.34 121
2025 10 19 09  15 40 40.919   -20 49 31.13  4.2219 3.4167  31.9 23.5 1.34 121
2025 10 19 10  15 40 41.414   -20 49 47.76  4.2224 3.4168  31.8 23.5 1.34 121
2025 10 19 11  15 40 41.910   -20 50 04.39  4.2230 3.4170  31.8 23.5 1.35 121
2025 10 19 12  15 40 42.406   -20 50 21.02  4.2236 3.4171  31.8 23.5 1.35 121
2025 10 19 13  15 40 42.904   -20 50 37.64  4.2242 3.4172  31.7 23.5 1.35 121
2025 10 19 14  15 40 43.402   -20 50 54.27  4.2247 3.4174  31.7 23.5 1.35 121
2025 10 19 15  15 40 43.901   -20 51 10.89  4.2253 3.4175  31.6 23.5 1.35 121
2025 10 19 16  15 40 44.401   -20 51 27.51  4.2259 3.4177  31.6 23.5 1.35 121
2025 10 19 17  15 40 44.901   -20 51 44.14  4.2264 3.4178  31.6 23.5 1.35 121
2025 10 19 18  15 40 45.403   -20 52 00.76  4.2270 3.4180  31.5 23.5 1.36 121
2025 10 19 19  15 40 45.905   -20 52 17.38  4.2276 3.4181  31.5 23.5 1.36 121
2025 10 19 20  15 40 46.408   -20 52 33.99  4.2282 3.4182  31.4 23.5 1.36 121
2025 10 19 21  15 40 46.911   -20 52 50.61  4.2287 3.4184  31.4 23.5 1.36 121
2025 10 19 22  15 40 47.416   -20 53 07.23  4.2293 3.4185  31.4 23.5 1.36 121
2025 10 19 23  15 40 47.921   -20 53 23.84  4.2299 3.4187  31.3 23.5 1.36 121
2025 10 20 00  15 40 48.427   -20 53 40.45  4.2304 3.4188  31.3 23.5 1.37 121
2025 10 20 01  15 40 48.934   -20 53 57.07  4.2310 3.4190  31.3 23.5 1.37 121